Le nostre stazioni meteo in Italia

Pubblicità
Il mio iltempo24.it
Napoli/Capodichino, Italia (16289): Temperatura & dewpoint: 03.07.2020 06:00:00 - 09.07.2020 06:00:00 (CEST)Napoli/Capodichino, Italia (16289): velocità del vento: 03.07.2020 06:00:00 - 09.07.2020 06:00:00 (CEST)Napoli/Capodichino, Italia (16289): direzione del vento: 03.07.2020 06:00:00 - 09.07.2020 06:00:00 (CEST)Napoli/Capodichino, Italia (16289): reduced air pressure: 03.07.2020 06:00:00 - 09.07.2020 06:00:00 (CEST)Napoli/Capodichino, Italia (16289): visibility: 03.07.2020 06:00:00 - 09.07.2020 06:00:00 (CEST)Napoli/Capodichino, Italia (16289): precipitazioni: 03.07.2020 06:00:00 - 09.07.2020 06:00:00 (CEST)
Data & Tempo tt [°C] td [°C] ff [km/h] ff [kn] dd ppp [hPa] vv [km] rr [mm]
09.07.2020 06:00:00 23,0 16,0 4 2 - - 10 -
09.07.2020 05:00:00 23,5 18,3 5 3 N 1016,4 10 0,0
09.07.2020 04:00:00 24,0 18,0 4 2 N - 10 -
09.07.2020 03:00:00 24,0 17,0 4 2 NE - 10 -
09.07.2020 02:00:00 24,1 17,3 5 3 ENE 1016,2 10 -
09.07.2020 01:00:00 25,0 17,0 4 2 ONO - 10 -
09.07.2020 00:00:00 25,0 16,0 5 3 NNO - 10 -
08.07.2020 23:00:00 25,8 15,1 8 4 N 1016,4 10 0,0
08.07.2020 22:00:00 26,0 15,0 9 5 NO - 10 -
08.07.2020 21:00:00 27,0 15,0 13 7 NO - 10 -
08.07.2020 20:00:00 27,6 15,1 15 8 ONO 1015,3 10 -
08.07.2020 19:00:00 29,0 15,0 16 9 O - 10 -
08.07.2020 18:00:00 30,0 16,0 16 9 ONO - 10 -
08.07.2020 17:00:00 30,3 15,8 13 7 SSO 1015,2 10 0,0
08.07.2020 16:00:00 30,0 17,0 15 8 SSO - 10 -
08.07.2020 15:00:00 30,0 16,0 16 9 SSO - 10 -
08.07.2020 14:00:00 30,2 14,3 11 6 SSO 1015,8 10 -
08.07.2020 13:00:00 31,0 14,0 5 3 - - 10 -
08.07.2020 12:00:00 29,0 14,0 5 3 - - 10 -
08.07.2020 11:00:00 28,3 13,4 11 6 - 1015,6 10 0,0
08.07.2020 10:00:00 27,0 12,0 13 7 ENE - 10 -
08.07.2020 09:00:00 26,0 11,0 15 8 E - 10 -
08.07.2020 08:00:00 24,4 11,6 13 7 NE 1014,8 10 -
08.07.2020 07:00:00 23,0 12,0 11 6 NE - 10 -
08.07.2020 06:00:00 22,0 12,0 11 6 NE - 10 -
08.07.2020 05:00:00 22,2 12,0 11 6 NE 1014,0 10 0,0
08.07.2020 04:00:00 23,0 12,0 11 6 NNE - 10 -
08.07.2020 03:00:00 23,0 11,0 11 6 NNE - 10 -
08.07.2020 02:00:00 23,3 10,7 13 7 ENE 1014,0 10 -
08.07.2020 01:00:00 24,0 11,0 13 7 E - 10 -
08.07.2020 00:00:00 24,0 11,0 16 9 E - 10 -
07.07.2020 23:00:00 24,9 10,9 18 10 E 1013,6 10 0,0
07.07.2020 22:00:00 26,0 12,0 21 11 E - 10 -
07.07.2020 21:00:00 27,0 13,0 15 8 E - 10 -
07.07.2020 20:00:00 28,5 13,4 13 7 E 1011,6 10 -
07.07.2020 19:00:00 30,0 14,0 16 9 ENE - 10 -
07.07.2020 18:00:00 31,0 14,0 15 8 E - 10 -
07.07.2020 17:00:00 31,8 14,7 13 7 E 1010,9 10 0,0
07.07.2020 16:00:00 31,0 15,0 11 6 E - 10 -
07.07.2020 15:00:00 32,0 18,0 8 4 - - 10 -
07.07.2020 14:00:00 31,4 19,7 9 5 SSO 1010,2 10 -
07.07.2020 13:00:00 32,0 16,0 15 8 ENE - 10 -
07.07.2020 12:00:00 31,0 15,0 15 8 E - 10 -
07.07.2020 11:00:00 30,2 16,5 9 5 - 1009,7 10 0,0
07.07.2020 10:00:00 28,0 19,0 9 5 NE - 10 -
07.07.2020 09:00:00 27,0 20,0 5 3 OSO - 10 -
07.07.2020 08:00:00 25,2 19,3 5 3 NE 1008,6 10 -
07.07.2020 07:00:00 24,0 19,0 4 2 ENE - 10 -
07.07.2020 06:00:00 23,0 20,0 4 2 - - 8 -
07.07.2020 05:00:00 23,6 20,6 4 2 - 1007,4 10 0,0
07.07.2020 04:00:00 24,0 19,0 8 4 SSO - 10 -
07.07.2020 03:00:00 24,0 20,0 4 2 - - 10 -
07.07.2020 02:00:00 24,1 20,1 5 3 SSO 1007,3 10 -
07.07.2020 01:00:00 25,0 18,0 8 4 SSO - 10 -
07.07.2020 00:00:00 26,0 15,0 4 2 - - 10 -
06.07.2020 23:00:00 26,2 15,0 2 1 - 1007,7 10 0,0
06.07.2020 22:00:00 26,0 16,0 2 1 - - 10 -
06.07.2020 21:00:00 27,0 16,0 11 6 NO - 10 -
06.07.2020 20:00:00 28,2 16,1 16 9 NO 1006,9 10 -
06.07.2020 19:00:00 30,0 15,0 18 10 ONO - 10 -
06.07.2020 18:00:00 31,0 15,0 21 11 ONO - 10 -
06.07.2020 17:00:00 31,7 14,5 22 12 O 1006,9 10 0,0
06.07.2020 16:00:00 31,0 15,0 15 8 - - 10 -
06.07.2020 15:00:00 33,0 14,0 13 7 NE - 10 -
06.07.2020 14:00:00 31,3 12,9 13 7 N 1008,1 10 -
06.07.2020 13:00:00 31,0 13,0 5 3 - - 10 -
06.07.2020 12:00:00 30,0 13,0 13 7 NE - 10 -
06.07.2020 11:00:00 29,7 13,4 8 4 - 1009,4 10 0,0
06.07.2020 10:00:00 29,0 14,0 8 4 NE - 10 -
06.07.2020 09:00:00 27,0 13,0 8 4 N - 10 -
06.07.2020 08:00:00 25,0 13,0 9 5 NNE 1009,8 10 -
06.07.2020 07:00:00 24,0 13,0 11 6 NNE - 10 -
06.07.2020 06:00:00 22,0 13,0 5 3 N - 10 -
06.07.2020 05:00:00 23,0 12,9 5 3 N 1010,2 10 0,0
06.07.2020 04:00:00 22,0 14,0 8 4 NNO - 10 -
06.07.2020 03:00:00 24,0 14,0 9 5 N - 10 -
06.07.2020 02:00:00 23,1 14,7 5 3 NO 1011,8 10 -
06.07.2020 01:00:00 25,0 16,0 5 3 ENE - 10 -
06.07.2020 00:00:00 25,0 17,0 4 2 - - 10 -
05.07.2020 23:00:00 25,2 16,5 4 2 - 1012,4 10 0,0
05.07.2020 22:00:00 26,0 16,0 11 6 NO - 10 -
05.07.2020 21:00:00 27,0 17,0 15 8 ONO - 10 -
05.07.2020 20:00:00 27,7 17,0 11 6 NO 1011,8 10 -
05.07.2020 19:00:00 29,0 16,0 18 10 NO - 10 -
05.07.2020 18:00:00 29,0 16,0 24 13 ONO - 10 -
05.07.2020 17:00:00 29,7 16,3 21 11 NO 1012,1 10 0,0
05.07.2020 16:00:00 32,0 14,0 13 7 NE - 10 -
05.07.2020 15:00:00 31,0 14,0 13 7 NE - 10 -
05.07.2020 14:00:00 30,9 14,0 13 7 NNE 1013,0 10 -
05.07.2020 13:00:00 30,0 13,0 15 8 E - 10 -
05.07.2020 12:00:00 29,0 14,0 13 7 NE - 10 -
05.07.2020 11:00:00 26,8 12,8 9 5 ENE 1014,3 10 0,0
05.07.2020 10:00:00 27,0 14,0 8 4 - - 10 -
05.07.2020 09:00:00 25,0 14,0 5 3 E - 10 -
05.07.2020 08:00:00 23,0 13,1 9 5 NNE 1014,0 10 -
05.07.2020 07:00:00 23,0 14,0 5 3 NE - 10 -
05.07.2020 06:00:00 22,0 14,0 8 4 N - 10 -
05.07.2020 05:00:00 22,1 14,5 8 4 N 1013,9 10 0,0
05.07.2020 04:00:00 - - - - - - - -
05.07.2020 03:00:00 23,0 14,0 9 5 NE - 10 -
05.07.2020 02:00:00 23,9 13,4 5 3 N 1014,5 10 -
05.07.2020 01:00:00 23,0 14,0 5 3 NE - 10 -
05.07.2020 00:00:00 24,0 14,0 8 4 NNE - 10 -
04.07.2020 23:00:00 23,7 13,9 9 5 NNE 1014,4 10 0,0
04.07.2020 22:00:00 24,0 15,0 9 5 NE - 10 -
04.07.2020 21:00:00 25,0 15,0 13 7 NE - 10 -
04.07.2020 20:00:00 26,5 13,7 9 5 NE 1012,9 10 -
04.07.2020 19:00:00 26,0 14,0 13 7 ENE - 10 -
04.07.2020 18:00:00 27,0 17,0 9 5 NNE - 10 -
04.07.2020 17:00:00 26,7 16,8 18 10 NO 1014,2 10 0,0
04.07.2020 16:00:00 27,0 20,0 4 2 - - 10 -
04.07.2020 15:00:00 27,0 21,0 5 3 - - 10 -
04.07.2020 14:00:00 27,7 19,9 11 6 - 1014,7 10 -
04.07.2020 13:00:00 26,0 19,0 5 3 N - 10 -
04.07.2020 12:00:00 23,0 15,0 5 3 E - 10 -
04.07.2020 11:00:00 21,9 19,2 16 9 - 1015,0 6 0,0
04.07.2020 10:00:00 26,0 21,0 11 6 SO - 10 -
04.07.2020 09:00:00 26,0 21,0 8 4 - - 10 -
04.07.2020 08:00:00 26,2 21,0 4 2 - 1013,8 10 -
04.07.2020 07:00:00 25,0 21,0 2 1 - - 10 -
04.07.2020 06:00:00 23,0 21,0 0 0 N - 10 -
04.07.2020 05:00:00 23,8 21,3 2 1 - 1012,9 10 0,0
04.07.2020 04:00:00 24,0 22,0 5 3 ENE - 10 -
04.07.2020 03:00:00 24,0 22,0 5 3 NE - 10 -
04.07.2020 02:00:00 24,4 21,6 8 4 E 1013,5 10 -
04.07.2020 01:00:00 25,0 21,0 2 1 - - 10 -
04.07.2020 00:00:00 25,0 21,0 2 1 - - 10 -
03.07.2020 23:00:00 25,2 21,4 8 4 ONO 1013,7 10 0,0
03.07.2020 22:00:00 26,0 21,0 8 4 NO - 10 -
03.07.2020 21:00:00 26,0 21,0 4 2 - - 10 -
03.07.2020 20:00:00 27,2 20,8 9 5 SSO 1012,0 10 -
03.07.2020 19:00:00 28,0 22,0 9 5 S - 10 -
03.07.2020 18:00:00 29,0 21,0 13 7 SSO - 10 -
03.07.2020 17:00:00 28,5 21,5 13 7 SSO 1011,7 10 0,0
03.07.2020 16:00:00 29,0 22,0 15 8 SSO - 10 -
03.07.2020 15:00:00 31,0 20,0 16 9 SSO - 10 -
03.07.2020 14:00:00 29,7 20,3 13 7 SSO 1012,0 10 -
03.07.2020 13:00:00 28,0 22,0 15 8 SSO - 10 -
03.07.2020 12:00:00 28,0 21,0 13 7 SSO - 10 -
03.07.2020 11:00:00 28,0 21,3 11 6 SSO 1012,0 10 0,0
03.07.2020 10:00:00 28,0 21,0 8 4 S - 10 -
03.07.2020 09:00:00 27,0 20,0 5 3 SSO - 10 -
03.07.2020 08:00:00 25,6 18,6 4 2 - 1011,7 10 -
03.07.2020 07:00:00 24,0 17,0 2 1 - - 10 -
03.07.2020 06:00:00 22,0 17,0 4 2 - - 10 -

tt = Temperatura
td = dewpoint
ff = velocità del vento
dd = direzione del vento
ppp = reduced air pressure
vv = visibility
rr = precipitazioni

Stazioni seguenti

WeatherPro
AMSI
MeteoEarth